Miscellaneous Local Product
Issued by NWS Hastings, NE

Home | Current Version | Previous Version | Graphics & Text | Print | Product List | Glossary On
Versions: 1 2 3 4 5 6 7 8 9 10 11 12 13 14 15 16 17 18 19 20 21 22 23 24 25 26 27 28 29 30 31 32 33 34 35 36 37 38 39 40 41 42 43 44 45 46 47 48 49 50
818
AXUS43 KGID 201002
MISGRI

GID CWA HOURLY WEATHER ROUNDUP
NATIONAL WEATHER SERVICE HASTINGS NE
400 AM CST MON FEB 20 2017

NOTE: "FAIR" INDICATES FEW OR NO CLOUDS BELOW 12,000 FEET WITH NO
SIGNIFICANT WEATHER AND/OR OBSTRUCTIONS TO VISIBILITY.

...SOUTH CENTRAL NEBRASKA...

CITY           SKY/WX    TMP DP  RH WIND       PRES   REMARKS
GRAND ISLAND   CLOUDY    56  55  97 S13       29.71R FOG
HASTINGS       CLOUDY    57  54  89 S10       29.70F
KEARNEY        CLOUDY    55  52  88 S13       29.70S
ORD            CLOUDY    56  51  84 S12       29.66R
YORK           CLOUDY    55  55 100 S9        29.73S
AURORA         CLOUDY    55  54  95 S9        29.72R
LEXINGTON      MOCLDY    51  49  93 S8        29.67F FOG
HOLDREGE       CLOUDY    53  52  96 S12G17    29.68F FOG
HEBRON         CLOUDY    59  57  91 S10       29.71F

...NEBRASKA PANHANDLE...

CITY           SKY/WX    TMP DP  RH WIND       PRES   REMARKS
CHADRON        CLOUDY    46  34  62 W21       29.67R
ALLIANCE       CLOUDY    47  22  37 W28G40    29.70R
SCOTTSBLUFF    CLOUDY    45  25  45 W17G28    29.75R
SIDNEY         CLOUDY    47  24  40 NW18      29.77R

...WESTERN AND NORTH CENTRAL NEBRASKA...

CITY           SKY/WX    TMP DP  RH WIND       PRES   REMARKS
VALENTINE      MOCLDY    47  42  83 SW10      29.60R
AINSWORTH      CLOUDY    50  49  96 S13       29.61R
ONEILL         CLOUDY    55  53  94 S13       29.64S FOG
BROKEN BOW     CLOUDY    53  51  93 S9        29.64F FOG
IMPERIAL       MOCLDY    47  35  63 NW10      29.72R
NORTH PLATTE   CLOUDY    49  45  86 S6        29.67R
MCCOOK         MOCLDY    48  40  73 SW9       29.67R

...EASTERN NEBRASKA...

CITY           SKY/WX    TMP DP  RH WIND       PRES   REMARKS
NORFOLK        CLOUDY    55  52  89 S12       29.71R
SO SIOUX CITY  CLOUDY    56  52  86 SE14      29.72F
TEKAMAH        CLOUDY    55  52  89 SE13      29.75S
COLUMBUS       CLOUDY    57  54  88 S14       29.73S
ALBION         CLOUDY    55  52  89 S10       29.72R FOG
OMAHA EPPLEY   LGT RAIN  58  53  84 SE16      29.74F
OFFUTT AFB     LGT RAIN  64  64 100 SE12      29.75F
MILLARD        LGT RAIN  61  57  88 S6        29.75F
LINCOLN        CLOUDY    59  56  89 S8        29.74S
NEBRASKA CITY  CLOUDY    56  55  97 S15       29.79S
BEATRICE       CLOUDY    60  58  91 SE10      29.72F
FALLS CITY     LGT RAIN  58  58 100 SE15      29.79F

...NORTHERN KANSAS...

CITY           SKY/WX    TMP DP  RH WIND       PRES   REMARKS
GOODLAND       CLOUDY    49  33  54 NW23G32   29.71S
HILL CITY      CLOUDY    52  46  80 SW6       29.71R
NORTON         SUNNY     54  45  71 SE10      29.67F
SMITH CENTER   CLOUDY    55  54  94 S10       29.71R FOG
HAYS           CLOUDY    56  54  93 S14       29.71S FOG
RUSSELL        CLOUDY    57  56  96 S22       29.70S
CONCORDIA      CLOUDY    58  58 100 SE17      29.70F
SALINA         CLOUDY    60  57  89 S14       29.76R
TOPEKA         LGT RAIN  61  58  90 SE6       29.79F



USA.gov is the U.S. government's official web portal to all federal, state and local government web resources and services.